Вернуться в каталог

STARLINK-34837

АктивенСвязьVLEO
NORAD 65423·PAYLOAD·🇺🇸 United States

Запущен Aug 31, 2025 с Cape Canaveral Space Force Station

Loading…

Ближайшие Пролёты (ближайшие 24 часа)

TLE

СвежийSource: CelesTrak SupGP

Эпоха: Sep 14, 2026, 14:36 UTC

1 65423C 25192V   26257.60881944 -.00024358  00000+0 -78319-3 0  2572
2 65423  53.1575  73.4660 0001129  94.3432  60.7526 15.31718716    19

Отслеживайте STARLINK-34837 в реальном времени с AllMySat

Download on the App Store